When you browse on this site, cookies collect data to enhance your experience and personalize the content and advertising you see.
Visit our Privacy Policy to learn more. By continuing to use the site, you agree to this use of cookies and data.
  • In Hungary
  • List of Countries
  • For 7 days
  • Water Temperature
  • Satellite Maps
  • Weather Map
  • News
  • Weather Widgets
  • user-avatar
    Login

    Hourly Weather Ariccia

    Today, 20 January, Sunday

    Time Temperature Precipitation Wind Pressure Humidity
    00:00 +5°C° 0 mm 2 mps 724 mmHg 82%
    01:00 +5°C° 0 mm 2 mps 724 mmHg 83%
    02:00 +5°C° 0 mm 2 mps 724 mmHg 83%
    03:00 +4°C° 0 mm 2 mps 724 mmHg 83%
    04:00 +4°C° 0 mm 2 mps 724 mmHg 82%
    05:00 +4°C° 0.7 mm 2 mps 723 mmHg 83%
    06:00 +5°C° 0.7 mm 2 mps 723 mmHg 84%
    07:00 +5°C° 0.7 mm 2 mps 723 mmHg 84%
    08:00 +5°C° 1.4 mm 2 mps 723 mmHg 84%
    09:00 +5°C° 1.4 mm 2 mps 723 mmHg 83%
    10:00 +5°C° 1.4 mm 2 mps 724 mmHg 83%
    11:00 +5°C° 1.2 mm 2 mps 723 mmHg 82%
    12:00 +5°C° 1.2 mm 2 mps 723 mmHg 81%
    13:00 +5°C° 1.2 mm 2 mps 723 mmHg 80%
    14:00 +6°C° 0.2 mm 2 mps 723 mmHg 80%
    15:00 +5°C° 0.2 mm 3 mps 723 mmHg 79%
    16:00 +7°C° 0.2 mm 3 mps 723 mmHg 79%
    17:00 +5°C° 0 mm 3 mps 723 mmHg 80%
    18:00 +5°C° 0 mm 3 mps 723 mmHg 81%
    19:00 +4°C° 0 mm 3 mps 723 mmHg 82%
    20:00 +4°C° 0 mm 3 mps 723 mmHg 82%
    21:00 +5°C° 0 mm 2 mps 723 mmHg 83%
    22:00 +5°C° 0 mm 2 mps 724 mmHg 83%
    23:00 +5°C° 0 mm 2 mps 724 mmHg 83%

    Tomorrow, 21 January, Monday

    Time Temperature Precipitation Wind Pressure Humidity
    00:00 +4°C° 0 mm 3 mps 724 mmHg 83%
    01:00 +4°C° 0 mm 3 mps 724 mmHg 83%
    02:00 +4°C° 0 mm 3 mps 724 mmHg 83%
    03:00 +4°C° 0 mm 3 mps 724 mmHg 83%
    04:00 +3°C° 0 mm 3 mps 723 mmHg 83%
    05:00 +3°C° 0 mm 3 mps 723 mmHg 82%
    06:00 +3°C° 0 mm 3 mps 723 mmHg 82%
    07:00 +3°C° 0 mm 3 mps 723 mmHg 82%
    08:00 +5°C° 0 mm 2 mps 724 mmHg 79%
    09:00 +6°C° 0 mm 2 mps 724 mmHg 76%
    10:00 +7°C° 0 mm 2 mps 724 mmHg 73%
    11:00 +7°C° 0 mm 2 mps 724 mmHg 71%
    12:00 +8°C° 0 mm 2 mps 724 mmHg 69%
    13:00 +9°C° 0 mm 2 mps 724 mmHg 67%
    14:00 +9°C° 0.2 mm 2 mps 724 mmHg 70%
    15:00 +8°C° 0.2 mm 2 mps 724 mmHg 72%
    16:00 +9°C° 0.2 mm 1 mps 723 mmHg 74%
    17:00 +9°C° 0.1 mm 1 mps 723 mmHg 75%
    18:00 +7°C° 0.1 mm 2 mps 723 mmHg 77%
    19:00 +7°C° 0.1 mm 2 mps 724 mmHg 78%
    20:00 +7°C° 0 mm 2 mps 724 mmHg 77%
    21:00 +6°C° 0 mm 2 mps 724 mmHg 77%
    22:00 +6°C° 0 mm 2 mps 724 mmHg 76%
    23:00 +6°C° 0 mm 2 mps 723 mmHg 76%

    Day after tomorrow, 22 January, Tuesday

    Time Temperature Precipitation Wind Pressure Humidity
    00:00 +6°C° 0 mm 2 mps 723 mmHg 76%
    01:00 +5°C° 0 mm 2 mps 722 mmHg 75%
    02:00 +5°C° 0 mm 2 mps 722 mmHg 74%
    03:00 +5°C° 0 mm 2 mps 722 mmHg 74%
    04:00 +5°C° 0 mm 2 mps 721 mmHg 73%
    05:00 +5°C° 0 mm 2 mps 721 mmHg 73%
    06:00 +5°C° 0 mm 2 mps 721 mmHg 73%
    07:00 +5°C° 0 mm 1 mps 720 mmHg 73%
    08:00 +6°C° 0 mm 1 mps 720 mmHg 72%
    09:00 +6°C° 0 mm 1 mps 720 mmHg 70%
    10:00 +7°C° 0 mm 1 mps 720 mmHg 68%
    11:00 +7°C° 0 mm 0 mps 720 mmHg 66%
    12:00 +7°C° 0 mm 0 mps 719 mmHg 63%
    13:00 +8°C° 0 mm 0 mps 719 mmHg 61%
    14:00 +8°C° 0 mm 0 mps 718 mmHg 62%
    15:00 +9°C° 0 mm 1 mps 718 mmHg 64%
    16:00 +9°C° 0 mm 1 mps 717 mmHg 65%
    17:00 +8°C° 0 mm 1 mps 717 mmHg 69%
    18:00 +7°C° 0 mm 1 mps 717 mmHg 73%
    19:00 +6°C° 0 mm 1 mps 717 mmHg 77%
    20:00 +6°C° 0 mm 1 mps 716 mmHg 78%
    21:00 +6°C° 0 mm 1 mps 716 mmHg 79%
    22:00 +5°C° 0 mm 1 mps 716 mmHg 81%
    23:00 +5°C° 0 mm 1 mps 715 mmHg 81%

    23 January, Wednesday

    Time Temperature Precipitation Wind Pressure Humidity
    00:00 +5°C° 0 mm 1 mps 715 mmHg 81%
    01:00 +4°C° 0 mm 2 mps 715 mmHg 82%
    02:00 +3°C° 0 mm 2 mps 714 mmHg 83%
    03:00 +4°C° 0 mm 1 mps 713 mmHg 84%
    04:00 +4°C° 0 mm 1 mps 713 mmHg 85%
    05:00 +3°C° 0 mm 2 mps 713 mmHg 84%
    06:00 +3°C° 0 mm 2 mps 713 mmHg 82%
    07:00 +3°C° 0 mm 2 mps 712 mmHg 81%
    08:00 +3°C° 0 mm 3 mps 712 mmHg 76%
    09:00 +4°C° 0 mm 3 mps 712 mmHg 71%
    10:00 +5°C° 0 mm 4 mps 712 mmHg 66%
    11:00 +6°C° 0 mm 5 mps 712 mmHg 64%
    12:00 +5°C° 0 mm 6 mps 711 mmHg 62%
    13:00 +6°C° 0 mm 7 mps 711 mmHg 61%
    14:00 +7°C° 0.3 mm 6 mps 710 mmHg 65%
    15:00 +5°C° 0.3 mm 6 mps 710 mmHg 69%
    16:00 +5°C° 0.3 mm 6 mps 710 mmHg 74%
    17:00 +5°C° 0.2 mm 6 mps 710 mmHg 74%
    18:00 +4°C° 0.2 mm 6 mps 710 mmHg 75%
    19:00 +4°C° 0.2 mm 6 mps 710 mmHg 76%
    20:00 +5°C° 0.4 mm 5 mps 710 mmHg 78%
    21:00 +5°C° 0.4 mm 5 mps 711 mmHg 79%
    22:00 +5°C° 0.4 mm 5 mps 711 mmHg 80%
    23:00 +5°C° 0.6 mm 4 mps 711 mmHg 79%

    24 January, Thursday

    Time Temperature Precipitation Wind Pressure Humidity
    00:00 +4°C° 0.6 mm 4 mps 710 mmHg 78%
    01:00 +4°C° 0.6 mm 3 mps 710 mmHg 77%
    02:00 +4°C° 0 mm 3 mps 710 mmHg 76%
    03:00 +3°C° 0 mm 3 mps 709 mmHg 75%
    04:00 +3°C° 0 mm 3 mps 709 mmHg 74%
    05:00 +3°C° 0 mm 3 mps 709 mmHg 73%
    06:00 +3°C° 0 mm 3 mps 709 mmHg 72%
    07:00 +3°C° 0 mm 3 mps 709 mmHg 71%
    08:00 +4°C° 0 mm 3 mps 709 mmHg 69%
    09:00 +5°C° 0 mm 3 mps 710 mmHg 67%
    10:00 +7°C° 0 mm 3 mps 710 mmHg 64%
    11:00 +8°C° 0 mm 3 mps 710 mmHg 61%
    12:00 +9°C° 0 mm 3 mps 710 mmHg 57%
    13:00 +10°C° 0 mm 3 mps 711 mmHg 53%
    14:00 +10°C° 0 mm 3 mps 711 mmHg 54%
    15:00 +8°C° 0 mm 4 mps 711 mmHg 55%
    16:00 +8°C° 0 mm 4 mps 711 mmHg 57%
    17:00 +7°C° 0 mm 4 mps 711 mmHg 59%
    18:00 +6°C° 0 mm 4 mps 712 mmHg 62%
    19:00 +5°C° 0 mm 4 mps 712 mmHg 64%
    20:00 +4°C° 0 mm 3 mps 712 mmHg 65%
    21:00 +4°C° 0 mm 3 mps 713 mmHg 66%
    22:00 +3°C° 0 mm 3 mps 713 mmHg 67%
    23:00 +3°C° 0 mm 3 mps 713 mmHg 67%

    25 January, Friday

    Time Temperature Precipitation Wind Pressure Humidity
    00:00 +3°C° 0 mm 3 mps 713 mmHg 67%
    01:00 +3°C° 0 mm 2 mps 713 mmHg 67%
    02:00 +3°C° 0 mm 2 mps 713 mmHg 67%
    03:00 +3°C° 0 mm 2 mps 713 mmHg 67%
    04:00 +3°C° 0 mm 2 mps 714 mmHg 68%
    05:00 +3°C° 0 mm 2 mps 714 mmHg 68%
    06:00 +3°C° 0 mm 2 mps 714 mmHg 68%
    07:00 +3°C° 0 mm 2 mps 715 mmHg 68%
    08:00 +4°C° 0 mm 2 mps 715 mmHg 65%
    09:00 +5°C° 0 mm 2 mps 716 mmHg 61%
    10:00 +7°C° 0 mm 1 mps 716 mmHg 58%
    11:00 +8°C° 0 mm 1 mps 717 mmHg 55%
    12:00 +9°C° 0 mm 1 mps 717 mmHg 51%
    13:00 +10°C° 0 mm 1 mps 717 mmHg 48%
    14:00 +9°C° 0 mm 2 mps 718 mmHg 50%
    15:00 +9°C° 0 mm 2 mps 718 mmHg 51%
    16:00 +9°C° 0 mm 2 mps 719 mmHg 53%
    17:00 +8°C° 0 mm 2 mps 719 mmHg 56%
    18:00 +7°C° 0 mm 2 mps 720 mmHg 59%
    19:00 +5°C° 0 mm 3 mps 720 mmHg 62%
    20:00 +5°C° 0 mm 3 mps 721 mmHg 63%
    21:00 +4°C° 0 mm 3 mps 721 mmHg 65%
    22:00 +3°C° 0 mm 3 mps 722 mmHg 66%
    23:00 +3°C° 0 mm 3 mps 722 mmHg 65%
    Show more